Orbital Elements
The following orbital elements are taken from MPO104057
Epoch 2009 June 18.0 TT = JDT 2455000.5 MPC
M 358.41706 (2000.0) P Q
n 0.68762722 Peri. 322.01278 -0.63131112 +0.67810298
a 1.2712589 Node 265.39971 -0.58641050 -0.73494491
e 0.8899049 Incl. 22.18164 -0.50751256 +0.00568549
P 1.43 H 14.6 G 0.15 U 0
From 1515 observations at 20 oppositions, 1983-2006, mean residual 0".54.
|